Showing default

COSMOS 80, 1570

Orbit data source: Space-Track

COSMOS 80, 1570 is a payload satellite owned by OKB-10 (CIS) in LEO that was launched on Fri, 03 Sep 1965 UTC via a KOSMOS 65S3 launch vehicle from the Tyuratam Missile And Space Complex (TTMTR). Payload-class satellites include a variety of spacecraft equipped with specific instruments for various scientific and technological missions. These include communications satellites like Starlink; space stations such as the ISS; scientific satellites like the Hubble; Earth observation satellites from companies like Planet Labs, Umbra, and HawkEye 360; GPS; miniature CubeSats for education and research; and military/defense satellites.

Loading next visibility...
Identifier
1570, 1965-070A
Orbit
LEO
Last TLE update
19 hours ago
Origin
Manufacturer
OKB-10
Mission
Defense Communications
Bus & Motor
STRELA-1 11F610, Unknown motor
Mass
50 kg wet, 50 kg dry
Launch date (UTC)
1965-09-03 (60 years ago)
Launch vehicle
KOSMOS 65S3
Launch site
Tyuratam Missile And Space Complex (TTMTR)
Object type
Payload
Rocket body
Debris
Shape & HBR
Poly, 0.8 m
Radar Cross Section
0.731 m², Medium (>0.1 m² and < 1m²)

Expand to show TLE details & history

TLE from 19 hours ago
0 COSMOS 80
1 01570U 65070A   25128.39158167 -.00000071  00000-0  16025-3 0  9995
2 01570  56.0526 128.9029 0102602 132.5086  11.1224 12.52793365730628
Epoch: 2025-05-08T09:23Z
Definitive object data (Epoch: 2025-05-08T09:23:52.656Z)
Latitude
29.36553°
Longitude
-80.67088°
Altitude
1,375.873 km
Speed
7.21 km/s
True Right ascension
19h 07m 02s
True Declination
29° 13' 50"
Sunlit
Object was in daylight at TLE epoch
Visualization TLE readout
Latitude
-22.15723°
Longitude
-44.90212°
Altitude
1,435.37 km
Speed
7.155 km/s
Apparent Right ascension
22h 53m 51s
Apparent Declination
-32° 40' 03"
Sunlit
Object is in daylight
Visualization observer readout
Local Sidereal Time
13:01:21
Azimuth
84.254° E
Elevation
-63.464°
Doppler factor
1
Orbital elements
Apogee altitude
1,533.002 km
Perigee altitude
1,372.311 km
Semi-major axis
7,830.793 km
Eccentricity
0.0102602
Inclination
56.0526°
RAAN
128.9029°
Arg. of periapsis
132.5086°
True anomaly
11.35209°
Mean anomaly
11.1224°
Eccentric anomaly
11.23696°
Mean motion
3.13209 °/min
BSTAR
0.00016025
Orbital period
114.94 mins
Loading maneuver chart data...
Loading SW <> Apogee altitude chart data...
Loading historical data...
Loading historical data...
Loading historical data...
Loading historical data...
Loading historical data...
Loading historical data...
Loading historical data...
Other satellites on launch #70 in the year 1965 (1965-09-03 UTC)

COSMOS 80 Visibility forecast

Observer location: undefined°, undefined°

Span
Click to sort rows by Start time (UTC) header in descending order
Start Az.
Max El. time (UTC)
Max El. Az.
Max El.
End time (UTC)
End Az.
13 mins2025-05-09 06:03:46.588Z304.071° NW2025-05-09 06:10:46.588Z0.642° NNE24.158°2025-05-09 06:16:46.588Z50.059° ENE
13 mins2025-05-09 08:06:46.588Z324.643° NNW2025-05-09 08:12:46.588Z21.561° NNE31.9°2025-05-09 08:19:46.588Z89.07° E
15 mins2025-05-09 10:06:46.588Z311.819° NW2025-05-09 10:13:46.588Z231.001° WSW44.389°2025-05-09 10:21:46.588Z144.11° SSE
8 mins2025-05-09 12:08:46.588Z276.278° WNW2025-05-09 12:12:46.588Z244.687° WSW16.713°2025-05-09 12:16:46.588Z213.695° SW
14 mins2025-05-10 00:57:46.588Z183.976° SSW2025-05-10 01:04:46.588Z121.118° SE32.906°2025-05-10 01:11:46.588Z59.725° ENE
16 mins2025-05-10 02:56:46.588Z242.69° WSW2025-05-10 03:04:46.588Z330.115° NNW41.566°2025-05-10 03:12:46.588Z42.048° NE
|